| time (UTC) | temp F | wind direction | speed knots | gust knots | rain 1hr in | rain 24hr in | rain mn in | humidity % | barometer mb |
| 20260906075403 | 49 | 28 | 3.5 | 15.6 | 0.00 | 0.09 | 0.00 | 74 | 1008.2 |
| 20260906074503 | 49 | 34 | 2.6 | 14.8 | 0.00 | 0.09 | 0.00 | 75 | 1008.1 |
| 20260906073603 | 49 | 5 | 5.2 | 19.1 | 0.00 | 0.09 | 0.00 | 74 | 1008.3 |
| 20260906072703 | 48 | 356 | 6.1 | 18.2 | 0.00 | 0.09 | 0.00 | 75 | 1008.1 |
| 20260906071803 | 48 | 344 | 3.5 | 13.9 | 0.00 | 0.09 | 0.00 | 76 | 1007.9 |
| 20260906070903 | 48 | 6 | 5.2 | 13.0 | 0.00 | 0.09 | 0.00 | 76 | 1007.7 |
| 20260906070003 | 48 | 349 | 3.5 | 15.6 | 0.00 | 0.09 | 0.00 | 76 | 1007.7 |
| 20260906065403 | 49 | 18 | 3.5 | 14.8 | 0.00 | 0.09 | 0.00 | 78 | 1007.5 |
| 20260906064713 | 49 | 51 | 1.7 | 13.0 | 0.00 | 0.09 | 0.00 | 77 | 1007.5 |
| 20260906063603 | 48 | 22 | 0.9 | 14.8 | 0.00 | 0.09 | 0.00 | 82 | 1007.5 |
| 20260906062913 | 48 | 4 | 3.5 | 12.2 | 0.00 | 0.09 | 0.00 | 82 | 1007.1 |
| 20260906061803 | 48 | 351 | 4.3 | 17.4 | 0.00 | 0.09 | 0.00 | 84 | 1006.9 |
| 20260906060903 | 48 | 343 | 3.5 | 12.2 | 0.00 | 0.09 | 0.00 | 84 | 1007.0 |
| 20260906060003 | 48 | 2 | 1.7 | 9.6 | 0.00 | 0.09 | 0.00 | 86 | 1006.7 |
| 20260906055616 | 48 | 349 | 1.7 | 9.6 | 0.00 | 0.09 | 0.00 | 87 | 1006.7 |
| 20260906054714 | 47 | 352 | 3.5 | 9.6 | 0.00 | 0.09 | 0.00 | 87 | 1006.7 |
| 20260906053603 | 47 | 8 | 1.7 | 9.6 | 0.00 | 0.09 | 0.00 | 88 | 1006.4 |
| 20260906052703 | 47 | 355 | 3.5 | 9.6 | 0.00 | 0.09 | 0.00 | 89 | 1006.3 |
| 20260906051804 | 47 | 354 | 1.7 | 9.6 | 0.00 | 0.09 | 0.00 | 89 | 1006.4 |
| 20260906050903 | 47 | 325 | 2.6 | 9.6 | 0.00 | 0.09 | 0.00 | 89 | 1006.4 |
| 20260906050003 | 47 | 333 | 1.7 | 7.8 | 0.00 | 0.09 | 0.00 | 89 | 1006.2 |
| 20260906045617 | 47 | 336 | 1.7 | 7.8 | 0.00 | 0.09 | 0.00 | 90 | 1006.2 |
| 20260906044503 | 47 | 330 | 0.9 | 9.6 | 0.00 | 0.09 | 0.00 | 90 | 1006.3 |
| 20260906043603 | 47 | 336 | 3.5 | 9.6 | 0.00 | 0.09 | 0.00 | 91 | 1006.2 |
| 20260906042703 | 47 | 336 | 3.5 | 9.6 | 0.00 | 0.09 | 0.00 | 92 | 1005.9 |
| 20260906041803 | 47 | 352 | 1.7 | 9.6 | 0.00 | 0.09 | 0.00 | 93 | 1006.0 |
| 20260906040905 | 47 | 359 | 2.6 | 7.0 | 0.00 | 0.09 | 0.00 | 94 | 1006.0 |
| 20260906040004 | 47 | 341 | 1.7 | 7.8 | 0.00 | 0.09 | 0.00 | 94 | 1006.0 |
| 20260906035403 | 47 | 344 | 3.5 | 7.8 | 0.00 | 0.09 | 0.00 | 94 | 1006.0 |
| 20260906034503 | 47 | 314 | 2.6 | 6.1 | 0.00 | 0.09 | 0.00 | 95 | 1005.8 |
| 20260906033603 | 47 | 342 | 2.6 | 7.8 | 0.00 | 0.09 | 0.00 | 95 | 1005.7 |
| 20260906032703 | 47 | 348 | 1.7 | 6.1 | 0.00 | 0.09 | 0.00 | 95 | 1005.9 |
| 20260906031803 | 48 | 339 | 1.7 | 9.6 | 0.00 | 0.09 | 0.00 | 95 | 1005.9 |
| 20260906030903 | 48 | 337 | 0.9 | 9.6 | 0.00 | 0.09 | 0.00 | 95 | 1005.7 |
| 20260906030003 | 48 | 339 | 2.6 | 6.1 | 0.00 | 0.09 | 0.00 | 95 | 1005.6 |
| 20260906025403 | 48 | 333 | 0.9 | 5.2 | 0.00 | 0.09 | 0.00 | 95 | 1005.5 |
| 20260906024503 | 48 | 347 | 1.7 | 6.1 | 0.00 | 0.09 | 0.00 | 96 | 1005.5 |
| 20260906023603 | 48 | 344 | 0.9 | 7.8 | 0.00 | 0.09 | 0.00 | 96 | 1005.4 |
| 20260906022703 | 48 | 339 | 3.5 | 7.0 | 0.00 | 0.09 | 0.00 | 96 | 1005.2 |
| 20260906021803 | 48 | 339 | 2.6 | 6.1 | 0.00 | 0.09 | 0.00 | 96 | 1005.1 |
| 20260906021115 | 48 | 338 | 0.9 | 7.0 | 0.00 | 0.09 | 0.00 | 97 | 1005.1 |
| 20260906020212 | 48 | 349 | 2.6 | 7.0 | 0.00 | 0.09 | 0.00 | 97 | 1005.2 |
| 20260906015614 | 47 | 337 | 3.5 | 7.0 | 0.00 | 0.09 | 0.00 | 97 | 1005.2 |
| 20260906014503 | 47 | 1 | 0.9 | 7.0 | 0.00 | 0.09 | 0.00 | 97 | 1005.0 |
| 20260906013603 | 47 | 6 | 1.7 | 3.5 | 0.00 | 0.09 | 0.00 | 97 | 1004.9 |
| 20260906012703 | 47 | 354 | 0.0 | 6.1 | 0.00 | 0.09 | 0.00 | 98 | 1004.7 |
| 20260906011803 | 47 | 8 | 0.9 | 7.0 | 0.00 | 0.09 | 0.00 | 98 | 1004.9 |
| 20260906010903 | 47 | 352 | 1.7 | 7.0 | 0.00 | 0.09 | 0.00 | 98 | 1004.7 |
| 20260906010213 | 47 | 335 | 2.6 | 6.1 | 0.00 | 0.09 | 0.00 | 98 | 1004.6 |
| 20260906005403 | 47 | 2 | 1.7 | 7.0 | 0.00 | 0.09 | 0.00 | 97 | 1004.6 |
| 20260906004503 | 47 | 4 | 1.7 | 6.1 | 0.00 | 0.09 | 0.00 | 97 | 1004.7 |
| 20260906003603 | 47 | 356 | 1.7 | 6.1 | 0.00 | 0.09 | 0.00 | 97 | 1004.4 |
| 20260906002703 | 47 | 6 | 0.9 | 5.2 | 0.00 | 0.09 | 0.00 | 97 | 1004.6 |
| 20260906001803 | 47 | 23 | 0.9 | 7.8 | 0.00 | 0.09 | 0.00 | 97 | 1004.7 |
| 20260906000903 | 47 | 356 | 2.6 | 6.1 | 0.00 | 0.09 | 0.00 | 96 | 1004.3 |
| 20260906000003 | 47 | 28 | 2.6 | 5.2 | 0.00 | 0.09 | 0.00 | 96 | 1004.3 |
| 20260905235403 | 47 | 38 | 1.7 | 7.0 | 0.00 | 0.09 | 0.00 | 96 | 1004.1 |
| 20260905234503 | 47 | 27 | 1.7 | 7.8 | 0.00 | 0.09 | 0.00 | 96 | 1004.1 |
| 20260905233603 | 47 | 19 | 0.9 | 9.6 | 0.00 | 0.09 | 0.00 | 96 | 1004.3 |
| 20260905232703 | 47 | 25 | 3.5 | 7.8 | 0.00 | 0.09 | 0.00 | 97 | 1004.1 |
| 20260905231803 | 47 | 9 | 0.9 | 7.8 | 0.00 | 0.09 | 0.00 | 96 | 1004.0 |
| 20260905230903 | 47 | 18 | 0.0 | 6.1 | 0.00 | 0.09 | 0.00 | 96 | 1003.9 |
| 20260905230003 | 47 | 23 | 1.7 | 6.1 | 0.00 | 0.09 | 0.00 | 97 | 1003.8 |
| 20260905225616 | 47 | 28 | 1.7 | 7.0 | 0.00 | 0.09 | 0.00 | 97 | 1003.7 |
| 20260905224503 | 48 | 48 | 1.7 | 6.1 | 0.00 | 0.09 | 0.00 | 96 | 1003.5 |
| 20260905223815 | 48 | 40 | 0.0 | 11.3 | 0.00 | 0.09 | 0.00 | 97 | 1003.4 |
| 20260905222703 | 49 | 3 | 0.0 | 9.6 | 0.00 | 0.09 | 0.00 | 97 | 1003.4 |
| 20260905221803 | 49 | 353 | 2.6 | 6.1 | 0.00 | 0.09 | 0.00 | 96 | 1003.4 |
| 20260905221113 | 49 | 4 | 1.7 | 9.6 | 0.00 | 0.09 | 0.00 | 95 | 1003.4 |
| 20260905220003 | 49 | 20 | 0.0 | 7.8 | 0.00 | 0.09 | 0.00 | 94 | 1003.1 |
| 20260905215403 | 49 | 38 | 1.7 | 7.0 | 0.00 | 0.09 | 0.00 | 95 | 1003.0 |
| 20260905214714 | 49 | 38 | 0.9 | 5.2 | 0.00 | 0.09 | 0.00 | 95 | 1003.0 |
| 20260905213603 | 49 | 1 | 0.9 | 5.2 | 0.00 | 0.09 | 0.00 | 95 | 1002.8 |
| 20260905212703 | 49 | 4 | 1.7 | 3.5 | 0.00 | 0.09 | 0.00 | 95 | 1002.9 |
| 20260905211805 | 49 | 345 | 0.9 | 3.5 | 0.00 | 0.09 | 0.00 | 95 | 1002.8 |
| 20260905210903 | 49 | 5 | 0.0 | 7.0 | 0.00 | 0.09 | 0.00 | 95 | 1002.8 |
| 20260905210004 | 49 | 16 | 0.9 | 3.5 | 0.00 | 0.09 | 0.00 | 95 | 1002.6 |
| 20260905205403 | 49 | 8 | 0.0 | 6.1 | 0.00 | 0.09 | 0.09 | 95 | 1002.6 |
| 20260905204714 | 49 | 14 | 0.0 | 6.1 | 0.00 | 0.09 | 0.09 | 95 | 1002.5 |
| 20260905203603 | 49 | 359 | 1.7 | 6.1 | 0.00 | 0.09 | 0.09 | 95 | 1002.5 |
| 20260905202703 | 49 | 57 | 1.7 | 6.1 | 0.00 | 0.09 | 0.09 | 94 | 1002.5 |
| 20260905201803 | 49 | 37 | 0.9 | 6.1 | 0.00 | 0.09 | 0.09 | 94 | 1002.4 |
| 20260905200903 | 49 | 26 | 0.0 | 5.2 | 0.00 | 0.09 | 0.09 | 94 | 1002.4 |
| 20260905200216 | 49 | 24 | 1.7 | 6.1 | 0.00 | 0.09 | 0.09 | 94 | 1002.4 |
| 20260905195403 | 49 | 28 | 0.0 | 5.2 | 0.00 | 0.09 | 0.09 | 95 | 1002.2 |
| 20260905194503 | 49 | 35 | 0.0 | 3.5 | 0.00 | 0.09 | 0.09 | 96 | 1002.3 |
| 20260905193603 | 49 | 14 | 0.9 | 7.0 | 0.00 | 0.09 | 0.09 | 97 | 1002.1 |
| 20260905192915 | 49 | 7 | 1.7 | 7.0 | 0.00 | 0.09 | 0.09 | 97 | 1001.9 |
| 20260905191803 | 50 | 354 | 1.7 | 3.5 | 0.00 | 0.09 | 0.09 | 95 | 1002.3 |
| 20260905191114 | 50 | 20 | 0.0 | 5.2 | 0.00 | 0.09 | 0.09 | 94 | 1002.0 |
| 20260905190003 | 50 | 30 | 1.7 | 7.0 | 0.00 | 0.09 | 0.09 | 93 | 1002.0 |
| 20260905185403 | 50 | 18 | 0.9 | 7.8 | 0.00 | 0.09 | 0.09 | 93 | 1001.8 |
| 20260905184503 | 50 | 29 | 1.7 | 9.6 | 0.00 | 0.09 | 0.09 | 93 | 1001.6 |
| 20260905183813 | 50 | 35 | 1.7 | 7.0 | 0.00 | 0.09 | 0.09 | 93 | 1001.7 |
| 20260905182915 | 50 | 40 | 1.7 | 7.0 | 0.00 | 0.09 | 0.09 | 93 | 1001.7 |
| 20260905181803 | 50 | 50 | 1.7 | 9.6 | 0.00 | 0.09 | 0.09 | 93 | 1001.7 |
| 20260905180903 | 50 | 40 | 1.7 | 9.6 | 0.00 | 0.09 | 0.09 | 93 | 1001.6 |
| 20260905180003 | 50 | 18 | 1.7 | 9.6 | 0.00 | 0.09 | 0.09 | 92 | 1001.6 |
| 20260905175403 | 50 | 50 | 0.0 | 6.1 | 0.00 | 0.09 | 0.09 | 92 | 1001.4 |
| 20260905174503 | 51 | 26 | 1.7 | 9.6 | 0.00 | 0.09 | 0.09 | 92 | 1001.2 |
| 20260905173603 | 51 | 352 | 1.7 | 9.6 | 0.00 | 0.09 | 0.09 | 93 | 1001.0 |
| 20260905172703 | 51 | 354 | 0.9 | 11.3 | 0.00 | 0.09 | 0.09 | 93 | 1001.1 |
| 20260905171803 | 51 | 9 | 4.3 | 12.2 | 0.00 | 0.09 | 0.09 | 92 | 1000.8 |
| 20260905170903 | 51 | 30 | 1.7 | 9.6 | 0.00 | 0.09 | 0.09 | 93 | 1000.8 |
| 20260905170003 | 51 | 28 | 2.6 | 9.6 | 0.00 | 0.09 | 0.09 | 92 | 1000.5 |
| 20260905165403 | 51 | 41 | 3.5 | 11.3 | 0.00 | 0.09 | 0.09 | 92 | 1000.5 |
| 20260905164503 | 52 | 64 | 1.7 | 3.5 | 0.00 | 0.09 | 0.09 | 92 | 1000.6 |
| 20260905163603 | 52 | 17 | 0.9 | 7.8 | 0.00 | 0.09 | 0.09 | 92 | 1000.3 |
| 20260905162703 | 53 | 34 | 1.7 | 9.6 | 0.00 | 0.09 | 0.09 | 92 | 1000.2 |
| 20260905161803 | 53 | 49 | 0.0 | 6.1 | 0.00 | 0.09 | 0.09 | 92 | 1000.0 |
| 20260905161116 | 53 | 28 | 1.7 | 6.1 | 0.00 | 0.09 | 0.09 | 92 | 1000.0 |
| 20260905160003 | 53 | 31 | 0.9 | 12.2 | 0.00 | 0.09 | 0.09 | 92 | 1000.1 |
| 20260905155403 | 53 | 29 | 1.7 | 12.2 | 0.00 | 0.09 | 0.09 | 92 | 1000.1 |
| 20260905154503 | 53 | 23 | 0.9 | 9.6 | 0.00 | 0.09 | 0.09 | 94 | 1000.0 |
| 20260905153603 | 53 | 355 | 2.6 | 7.8 | 0.00 | 0.09 | 0.09 | 94 | 999.5 |
| 20260905152703 | 53 | 358 | 1.7 | 7.0 | 0.00 | 0.09 | 0.09 | 94 | 999.5 |
| 20260905151803 | 53 | 32 | 0.9 | 7.0 | 0.00 | 0.09 | 0.09 | 94 | 999.4 |
| 20260905150903 | 53 | 24 | 1.7 | 9.6 | 0.00 | 0.09 | 0.09 | 94 | 999.4 |
| 20260905150003 | 53 | 39 | 0.9 | 7.8 | 0.00 | 0.09 | 0.09 | 96 | 999.2 |
| 20260905145404 | 54 | 41 | 1.7 | 3.5 | 0.00 | 0.09 | 0.09 | 96 | 999.5 |
| 20260905144503 | 54 | 341 | 1.7 | 6.1 | 0.02 | 0.09 | 0.09 | 96 | 999.0 |
| 20260905143604 | 54 | 5 | 0.9 | 7.0 | 0.04 | 0.09 | 0.09 | 97 | 998.9 |
| 20260905142706 | 53 | 15 | 1.7 | 7.0 | 0.04 | 0.09 | 0.09 | 97 | 999.0 |
| 20260905141803 | 54 | 358 | 2.6 | 6.1 | 0.04 | 0.09 | 0.09 | 97 | 998.6 |
| 20260905140903 | 54 | 31 | 0.9 | 5.2 | 0.04 | 0.09 | 0.09 | 97 | 998.6 |
| 20260905140004 | 53 | 13 | 0.0 | 6.1 | 0.04 | 0.09 | 0.09 | 97 | 998.8 |
| 20260905135403 | 53 | 11 | 0.9 | 12.2 | 0.04 | 0.09 | 0.09 | 96 | 998.6 |
| 20260905134504 | 56 | 355 | 4.3 | 12.2 | 0.01 | 0.07 | 0.07 | 89 | 998.7 |
| 20260905133603 | 57 | 18 | 0.0 | 1.7 | 0.00 | 0.06 | 0.06 | 92 | 998.4 |
| 20260905132703 | 55 | 14 | 0.9 | 9.6 | 0.00 | 0.06 | 0.06 | 94 | 998.4 |
| 20260905131803 | 57 | 346 | 3.5 | 7.8 | 0.00 | 0.06 | 0.06 | 86 | 998.2 |
| 20260905130903 | 58 | 351 | 1.7 | 7.8 | 0.00 | 0.06 | 0.06 | 82 | 998.2 |
| 20260905130004 | 57 | 319 | 2.6 | 7.8 | 0.00 | 0.06 | 0.06 | 84 | 998.0 |
| 20260905125403 | 57 | 332 | 1.7 | 6.1 | 0.00 | 0.06 | 0.06 | 84 | 998.0 |
| 20260905124503 | 57 | 335 | 1.7 | 5.2 | 0.00 | 0.06 | 0.06 | 84 | 997.9 |
| 20260905123603 | 57 | 359 | 0.9 | 9.6 | 0.00 | 0.06 | 0.06 | 84 | 997.9 |
| 20260905122703 | 58 | 309 | 1.7 | 6.1 | 0.00 | 0.06 | 0.06 | 85 | 997.9 |
| 20260905121803 | 58 | 308 | 1.7 | 6.1 | 0.00 | 0.06 | 0.06 | 84 | 997.8 |
| 20260905120903 | 59 | 301 | 1.7 | 3.5 | 0.00 | 0.06 | 0.06 | 85 | 997.6 |
| 20260905120003 | 58 | 312 | 1.7 | 7.0 | 0.00 | 0.06 | 0.06 | 87 | 997.6 |
| 20260905115403 | 57 | 296 | 1.7 | 3.5 | 0.00 | 0.06 | 0.06 | 87 | 997.5 |
| 20260905114503 | 57 | 299 | 1.7 | 3.5 | 0.00 | 0.06 | 0.06 | 89 | 997.6 |
| 20260905113812 | 57 | 304 | 1.7 | 3.5 | 0.00 | 0.06 | 0.06 | 89 | 997.5 |
| 20260905112915 | 57 | 318 | 1.7 | 3.5 | 0.00 | 0.06 | 0.06 | 92 | 997.4 |
| 20260905111803 | 55 | 324 | 2.6 | 5.2 | 0.00 | 0.06 | 0.06 | 92 | 997.6 |
| 20260905110903 | 55 | 334 | 0.9 | 7.0 | 0.04 | 0.06 | 0.06 | 96 | 997.6 |
| 20260905110003 | 55 | 334 | 0.9 | 7.0 | 0.06 | 0.06 | 0.06 | 96 | 997.3 |
| 20260905105403 | 54 | 295 | 1.7 | 3.5 | 0.06 | 0.06 | 0.06 | 96 | 997.4 |
| 20260905104716 | 55 | 296 | 1.7 | 5.2 | 0.06 | 0.06 | 0.06 | 96 | 997.2 |
| 20260905103603 | 54 | 325 | 1.7 | 3.5 | 0.06 | 0.06 | 0.06 | 98 | 997.3 |
| 20260905102703 | 54 | 358 | 0.9 | 5.2 | 0.06 | 0.06 | 0.06 | 98 | 997.2 |
| 20260905102013 | 53 | 307 | 0.9 | 6.1 | 0.06 | 0.06 | 0.06 | 98 | 997.1 |
| 20260905100904 | 55 | 308 | 0.9 | 5.2 | 0.02 | 0.02 | 0.02 | 94 | 996.9 |
| 20260905100217 | 55 | 300 | 1.7 | 3.5 | 0.00 | 0.00 | 0.00 | 91 | 997.0 |
| 20260905095403 | 55 | 298 | 1.7 | 3.5 | 0.00 | 0.00 | 0.00 | 91 | 996.9 |
| 20260905094503 | 55 | 309 | 0.9 | 3.5 | 0.00 | 0.00 | 0.00 | 90 | 996.8 |
| 20260905093603 | 55 | 316 | 0.9 | 3.5 | 0.00 | 0.00 | 0.00 | 90 | 996.7 |
| 20260905092703 | 55 | 327 | 1.7 | 5.2 | 0.00 | 0.00 | 0.00 | 91 | 996.8 |
| 20260905091803 | 55 | 335 | 1.7 | 3.5 | 0.00 | 0.00 | 0.00 | 92 | 996.9 |
| 20260905090903 | 54 | 294 | 1.7 | 3.5 | 0.00 | 0.00 | 0.00 | 93 | 996.8 |
| 20260905090003 | 54 | 313 | 1.7 | 3.5 | 0.00 | 0.00 | 0.00 | 96 | 996.8 |
| 20260905085405 | 54 | 292 | 1.7 | 3.5 | 0.00 | 0.00 | 0.00 | 96 | 996.7 |
| 20260905084504 | 54 | 310 | 1.7 | 5.2 | 0.00 | 0.00 | 0.00 | 98 | 996.8 |
| 20260905083603 | 53 | 311 | 1.7 | 5.2 | 0.00 | 0.00 | 0.00 | 99 | 996.6 |
| 20260905082703 | 53 | 301 | 1.7 | 3.5 | 0.00 | 0.00 | 0.00 | 99 | 996.5 |
| 20260905081803 | 53 | 310 | 0.9 | 3.5 | 0.00 | 0.00 | 0.00 | 99 | 996.7 |
| 20260905080903 | 52 | 313 | 0.9 | 3.5 | 0.00 | 0.00 | 0.00 | 99 | 996.6 |
| 20260905080004 | 52 | 311 | 1.7 | 3.5 | 0.00 | 0.00 | 0.00 | 99 | 996.5 |